Location: Moscow
(55.7500°N, 37.5830°E)
Time: 19:47:27
(UTC+03:00)

Tiros 1 despin weight - Pass Details

Date: 03 December 2021
Orbit: 592 x 641 km, 48.2° (Epoch: 21 January)

Event Time Altitude Azimuth Distance (km) Brightness Sun altitude
Rises 18:11:42 0° 265° (W) 2,826 ? -17.1°
Reaches altitude 10° 18:14:19 10° 251° (WSW) 1,923 ? -17.5°
Maximum altitude 18:17:48 23° 199° (SSW) 1,270 ? -17.9°
Drops below altitude 10° 18:21:17 10° 147° (SSE) 1,928 ? -18.4°
Enters shadow 18:21:27 - 145° (SE) 1,980 ? -18.4°
